"Period start","avg(HW err(1)/warn(2) (#))","avg(Visibility (m))","avg(Weather code (#))","avg(Precip intensity (mm/h))","min(HW err(1)/warn(2) (#))","max(HW err(1)/warn(2) (#))","std(HW err(1)/warn(2) (#))","med(HW err(1)/warn(2) (#))","min(Visibility (m))","max(Visibility (m))","std(Visibility (m))","med(Visibility (m))","min(Weather code (#))","max(Weather code (#))","std(Weather code (#))","med(Weather code (#))","min(Precip intensity (mm/h))","max(Precip intensity (mm/h))","std(Precip intensity (mm/h))","med(Precip intensity (mm/h))"
2016-06-29 00:00:00,2,44844,0,0.00,2,2,0,2,37925,50000,4323,44825,0,0,0,0,0.00,0.00,0.00,0.00
2016-06-29 00:10:00,2,33285,0,0.00,2,2,0,2,22888,50000,8027,34662,0,0,0,0,0.00,0.00,0.00,0.00
2016-06-29 00:20:00,2,39306,0,0.00,2,2,0,2,25898,50000,8170,38961,0,0,0,0,0.00,0.00,0.00,0.00
2016-06-29 00:30:00,2,47291,0,0.00,0,2,1,2,36772,50000,3960,48792,0,0,0,0,0.00,0.00,0.00,0.00
2016-06-29 00:40:00,1,35897,0,0.00,0,2,1,2,11750,50000,12107,39384,0,0,0,0,0.00,0.00,0.00,0.00
2016-06-29 00:50:00,2,46815,0,0.00,2,2,0,2,33951,50000,5653,49959,0,0,0,0,0.00,0.00,0.00,0.00
2016-06-29 01:00:00,2,39644,0,0.00,2,2,0,2,31023,50000,5509,39120,0,0,0,0,0.00,0.00,0.00,0.00
2016-06-29 01:10:00,2,42825,0,0.00,0,2,1,2,19998,50000,9419,45414,0,0,0,0,0.00,0.00,0.00,0.00
2016-06-29 01:20:00,0,39524,0,0.00,0,0,0,0,34196,46312,4162,38650,0,0,0,0,0.00,0.00,0.00,0.00
2016-06-29 01:30:00,2,46502,0,0.00,0,2,1,2,39336,50000,3881,49190,0,0,0,0,0.00,0.00,0.00,0.00
2016-06-29 01:40:00,2,44722,0,0.00,2,2,0,2,33498,50000,5794,47002,0,0,0,0,0.00,0.00,0.00,0.00
2016-06-29 01:50:00,2,47135,0,0.00,0,2,1,2,35563,50000,4392,49850,0,0,0,0,0.00,0.00,0.00,0.00
2016-06-29 02:00:00,0,41496,0,0.00,0,2,1,0,24028,50000,7901,43125,0,0,0,0,0.00,0.00,0.00,0.00
2016-06-29 02:10:00,0,41309,0,0.00,0,0,0,0,22954,50000,9895,46553,0,0,0,0,0.00,0.00,0.00,0.00
2016-06-29 02:20:00,0,45108,0,0.00,0,0,0,0,24730,50000,8355,49892,0,0,0,0,0.00,0.00,0.00,0.00
2016-06-29 02:30:00,1,42173,0,0.00,0,2,1,2,27114,50000,8451,45792,0,0,0,0,0.00,0.00,0.00,0.00
2016-06-29 02:40:00,2,36785,0,0.00,2,2,0,2,23790,50000,7935,36146,0,0,0,0,0.00,0.00,0.00,0.00
2016-06-29 02:50:00,2,44391,0,0.00,2,2,0,2,31200,50000,5506,45460,0,0,0,0,0.00,0.00,0.00,0.00
2016-06-29 03:00:00,2,46071,0,0.00,2,2,0,2,35109,50000,4760,47956,0,0,0,0,0.00,0.00,0.00,0.00
2016-06-29 03:10:00,2,44510,0,0.00,2,2,0,2,30204,50000,6124,46920,0,0,0,0,0.00,0.00,0.00,0.00
2016-06-29 03:20:00,2,42606,0,0.00,2,2,0,2,31528,50000,6942,43925,0,0,0,0,0.00,0.00,0.00,0.00
2016-06-29 03:30:00,2,43197,0,0.00,0,2,1,2,28665,50000,8722,47902,0,0,0,0,0.00,0.00,0.00,0.00
2016-06-29 03:40:00,1,47024,0,0.00,0,2,1,2,41284,50000,2921,47152,0,0,0,0,0.00,0.00,0.00,0.00
2016-06-29 03:50:00,1,47159,0,0.00,0,2,1,2,41447,50000,3043,48397,0,0,0,0,0.00,0.00,0.00,0.00
2016-06-29 04:00:00,0,45324,0,0.00,0,0,0,0,35042,50000,4350,45524,0,0,0,0,0.00,0.00,0.00,0.00
2016-06-29 04:10:00,0,47818,0,0.00,0,0,0,0,39086,50000,3100,48199,0,0,0,0,0.00,0.00,0.00,0.00
2016-06-29 04:20:00,0,46934,0,0.00,0,0,0,0,36814,50000,4257,49290,0,0,0,0,0.00,0.00,0.00,0.00
2016-06-29 04:30:00,0,44861,0,0.00,0,0,0,0,34896,50000,4869,46769,0,0,0,0,0.00,0.00,0.00,0.00
2016-06-29 04:40:00,0,48581,0,0.00,0,1,0,0,43472,50000,2656,50000,0,0,0,0,0.00,0.00,0.00,0.00
2016-06-29 04:50:00,0,48965,0,0.00,0,0,0,0,41473,50000,2556,50000,0,0,0,0,0.00,0.00,0.00,0.00
2016-06-29 05:00:00,0,48717,0,0.00,0,0,0,0,41530,50000,2637,50000,0,0,0,0,0.00,0.00,0.00,0.00
2016-06-29 05:10:00,0,49828,0,0.00,0,0,0,0,48276,50000,517,50000,0,0,0,0,0.00,0.00,0.00,0.00
2016-06-29 05:20:00,0,48723,0,0.00,0,0,0,0,44694,50000,1991,49853,0,0,0,0,0.00,0.00,0.00,0.00
2016-06-29 05:30:00,0,49105,0,0.00,0,0,0,0,45806,50000,1454,50000,0,0,0,0,0.00,0.00,0.00,0.00
2016-06-29 05:40:00,0,49400,0,0.00,0,0,0,0,44251,50000,1718,50000,0,0,0,0,0.00,0.00,0.00,0.00
2016-06-29 05:50:00,0,47791,0,0.00,0,0,0,0,44358,50000,2357,48818,0,0,0,0,0.00,0.00,0.00,0.00
2016-06-29 06:00:00,0,49785,0,0.00,0,0,0,0,49023,50000,368,50000,0,0,0,0,0.00,0.00,0.00,0.00
2016-06-29 06:10:00,0,48981,0,0.00,0,0,0,0,45596,50000,1516,50000,0,0,0,0,0.00,0.00,0.00,0.00
2016-06-29 06:20:00,0,49206,0,0.00,0,0,0,0,46197,50000,1256,50000,0,0,0,0,0.00,0.00,0.00,0.00
2016-06-29 06:30:00,0,49862,0,0.00,0,0,0,0,48615,50000,416,50000,0,0,0,0,0.00,0.00,0.00,0.00
2016-06-29 06:40:00,0,48992,0,0.00,0,0,0,0,43935,50000,1844,50000,0,0,0,0,0.00,0.00,0.00,0.00
2016-06-29 06:50:00,0,50000,0,0.00,0,0,0,0,50000,50000,0,50000,0,0,0,0,0.00,0.00,0.00,0.00
2016-06-29 07:00:00,0,49568,0,0.00,0,0,0,0,47146,50000,917,50000,0,0,0,0,0.00,0.00,0.00,0.00
2016-06-29 07:10:00,0,45575,53,0.29,0,0,0,0,31284,50000,6168,49691,51,61,4,51,0.05,0.75,0.25,0.20
2016-06-29 07:20:00,0,42817,31,0.08,0,0,0,0,26541,50000,8056,44955,0,51,25,51,0.00,0.45,0.14,0.00
2016-06-29 07:30:00,0,47400,0,0.00,0,0,0,0,40801,50000,3444,49881,0,0,0,0,0.00,0.00,0.00,0.00
2016-06-29 07:40:00,0,48576,0,0.00,0,0,0,0,44533,50000,1901,50000,0,0,0,0,0.00,0.00,0.00,0.00
2016-06-29 07:50:00,0,48813,0,0.00,0,0,0,0,43522,50000,2090,50000,0,0,0,0,0.00,0.00,0.00,0.00
2016-06-29 08:00:00,0,49382,0,0.00,0,0,0,0,48177,50000,790,50000,0,0,0,0,0.00,0.00,0.00,0.00
2016-06-29 08:10:00,0,43301,0,0.00,0,0,0,0,15209,50000,11604,49804,0,0,0,0,0.00,0.00,0.00,0.00
2016-06-29 08:20:00,0,49824,0,0.00,0,0,0,0,48764,50000,386,50000,0,0,0,0,0.00,0.00,0.00,0.00
2016-06-29 08:30:00,0,43863,0,0.00,0,0,0,0,13496,50000,11637,50000,0,0,0,0,0.00,0.00,0.00,0.00
2016-06-29 08:40:00,0,49873,0,0.00,0,0,0,0,48728,50000,382,50000,0,0,0,0,0.00,0.00,0.00,0.00
2016-06-29 08:50:00,0,50000,0,0.00,0,0,0,0,50000,50000,0,50000,0,0,0,0,0.00,0.00,0.00,0.00
2016-06-29 09:00:00,0,50000,0,0.00,0,0,0,0,50000,50000,0,50000,0,0,0,0,0.00,0.00,0.00,0.00
2016-06-29 09:10:00,0,50000,0,0.00,0,0,0,0,50000,50000,0,50000,0,0,0,0,0.00,0.00,0.00,0.00
2016-06-29 09:20:00,0,50000,0,0.00,0,0,0,0,50000,50000,0,50000,0,0,0,0,0.00,0.00,0.00,0.00
2016-06-29 09:30:00,0,50000,0,0.00,0,0,0,0,50000,50000,0,50000,0,0,0,0,0.00,0.00,0.00,0.00
2016-06-29 09:40:00,0,50000,0,0.00,0,0,0,0,50000,50000,0,50000,0,0,0,0,0.00,0.00,0.00,0.00
2016-06-29 09:50:00,0,49867,0,0.00,0,0,0,0,48860,50000,340,50000,0,0,0,0,0.00,0.00,0.00,0.00
2016-06-29 10:00:00,0,48841,0,0.00,0,0,0,0,40690,50000,2801,50000,0,0,0,0,0.00,0.00,0.00,0.00
2016-06-29 10:10:00,0,49523,0,0.00,0,0,0,0,45233,50000,1430,50000,0,0,0,0,0.00,0.00,0.00,0.00
2016-06-29 10:20:00,0,50000,0,0.00,0,0,0,0,50000,50000,0,50000,0,0,0,0,0.00,0.00,0.00,0.00
2016-06-29 10:30:00,0,50000,0,0.00,0,0,0,0,50000,50000,0,50000,0,0,0,0,0.00,0.00,0.00,0.00
2016-06-29 10:40:00,0,44631,0,0.00,0,0,0,0,19049,50000,9834,50000,0,0,0,0,0.00,0.00,0.00,0.00
2016-06-29 10:50:00,0,50000,0,0.00,0,0,0,0,50000,50000,0,50000,0,0,0,0,0.00,0.00,0.00,0.00
2016-06-29 11:00:00,0,50000,0,0.00,0,0,0,0,50000,50000,0,50000,0,0,0,0,0.00,0.00,0.00,0.00
2016-06-29 11:10:00,0,50000,0,0.00,0,0,0,0,50000,50000,0,50000,0,0,0,0,0.00,0.00,0.00,0.00
2016-06-29 11:20:00,0,50000,0,0.00,0,0,0,0,50000,50000,0,50000,0,0,0,0,0.00,0.00,0.00,0.00
2016-06-29 11:30:00,0,50000,0,0.00,0,0,0,0,50000,50000,0,50000,0,0,0,0,0.00,0.00,0.00,0.00
2016-06-29 11:40:00,0,40570,0,0.00,0,0,0,0,20215,50000,10433,43388,0,0,0,0,0.00,0.00,0.00,0.00
2016-06-29 11:50:00,0,50000,0,0.00,0,0,0,0,50000,50000,0,50000,0,0,0,0,0.00,0.00,0.00,0.00
2016-06-29 12:00:00,0,49862,0,0.00,0,0,0,0,48816,50000,353,50000,0,0,0,0,0.00,0.00,0.00,0.00
2016-06-29 12:10:00,0,49792,0,0.00,0,0,0,0,47925,50000,622,50000,0,0,0,0,0.00,0.00,0.00,0.00
2016-06-29 12:20:00,0,50000,0,0.00,0,0,0,0,50000,50000,0,50000,0,0,0,0,0.00,0.00,0.00,0.00
2016-06-29 12:30:00,0,50000,0,0.00,0,0,0,0,50000,50000,0,50000,0,0,0,0,0.00,0.00,0.00,0.00
2016-06-29 12:40:00,0,50000,0,0.00,0,0,0,0,50000,50000,0,50000,0,0,0,0,0.00,0.00,0.00,0.00
2016-06-29 12:50:00,0,49907,0,0.00,0,0,0,0,49073,50000,278,50000,0,0,0,0,0.00,0.00,0.00,0.00
2016-06-29 13:00:00,0,45772,7,0.06,0,1,0,0,11946,50000,11959,50000,0,61,19,0,0.00,0.55,0.17,0.00
2016-06-29 13:10:00,0,20021,58,2.60,0,0,0,0,11636,47244,11055,14555,52,61,4,61,0.50,6.20,1.76,2.28
2016-06-29 13:20:00,0,31105,58,0.16,0,0,0,0,21708,50000,9747,27384,51,61,5,61,0.05,0.25,0.07,0.15
2016-06-29 13:30:00,0,44080,16,0.06,0,0,0,0,28532,50000,8304,50000,0,61,25,0,0.00,0.40,0.12,0.00
2016-06-29 13:40:00,0,50000,0,0.00,0,0,0,0,50000,50000,0,50000,0,0,0,0,0.00,0.00,0.00,0.00
2016-06-29 13:50:00,0,50000,0,0.00,0,0,0,0,50000,50000,0,50000,0,0,0,0,0.00,0.00,0.00,0.00
2016-06-29 14:00:00,0,50000,0,0.00,0,0,0,0,50000,50000,0,50000,0,0,0,0,0.00,0.00,0.00,0.00
2016-06-29 14:10:00,0,50000,0,0.00,0,0,0,0,50000,50000,0,50000,0,0,0,0,0.00,0.00,0.00,0.00
2016-06-29 14:20:00,0,49604,0,0.00,0,0,0,0,47517,50000,823,50000,0,0,0,0,0.00,0.00,0.00,0.00
2016-06-29 14:30:00,0,49882,0,0.00,0,0,0,0,48929,50000,318,50000,0,0,0,0,0.00,0.00,0.00,0.00
2016-06-29 14:40:00,0,47188,55,0.88,0,0,0,0,41173,50000,3605,50000,51,61,5,51,0.00,3.55,1.05,0.58
2016-06-29 14:50:00,0,50000,57,0.10,0,0,0,0,50000,50000,0,50000,51,61,5,61,0.00,0.25,0.09,0.08
2016-06-29 15:00:00,0,50000,26,0.01,0,0,0,0,50000,50000,0,50000,0,61,27,20,0.00,0.05,0.02,0.00
2016-06-29 15:10:00,0,47903,12,0.28,0,0,0,0,37388,50000,4300,50000,0,61,24,0,0.00,2.55,0.76,0.00
2016-06-29 15:20:00,0,28640,61,3.40,0,0,0,0,17539,48095,10118,24944,61,62,0,61,0.00,10.35,3.28,2.98
2016-06-29 15:30:00,0,50000,6,0.00,0,0,0,0,50000,50000,0,50000,0,61,18,0,0.00,0.00,0.00,0.00
2016-06-29 15:40:00,0,50000,0,0.00,0,0,0,0,50000,50000,0,50000,0,0,0,0,0.00,0.00,0.00,0.00
2016-06-29 15:50:00,0,50000,0,0.00,0,0,0,0,50000,50000,0,50000,0,0,0,0,0.00,0.00,0.00,0.00
2016-06-29 16:00:00,0,49836,0,0.00,0,0,0,0,48476,50000,455,50000,0,0,0,0,0.00,0.00,0.00,0.00
2016-06-29 16:10:00,0,46122,12,0.01,0,0,0,0,35488,50000,5387,49348,0,61,24,0,0.00,0.10,0.03,0.00
2016-06-29 16:20:00,0,44465,10,0.00,0,0,0,0,23842,50000,8514,49946,0,51,20,0,0.00,0.00,0.00,0.00
2016-06-29 16:30:00,0,37581,37,5.65,0,0,0,0,6308,50000,14114,44514,0,63,30,61,0.00,45.85,13.46,0.85
2016-06-29 16:40:00,0,17297,61,8.65,0,0,0,0,7466,40472,10917,13521,61,62,0,61,0.00,31.45,10.78,2.75
2016-06-29 16:50:00,0,5768,62,39.02,0,0,0,0,4776,7571,877,5477,62,63,0,62,19.30,59.70,13.52,40.47
2016-06-29 17:00:00,0,5297,62,15.92,0,0,0,0,4533,6334,547,5222,61,62,0,62,1.30,31.50,9.83,17.93
2016-06-29 17:10:00,0,10955,45,0.23,0,0,0,0,6583,13925,2112,11031,0,61,23,52,0.00,0.85,0.27,0.10
2016-06-29 17:20:00,0,12905,60,0.11,0,0,0,0,8301,18918,3447,11652,51,61,3,61,0.00,0.35,0.10,0.08
2016-06-29 17:30:00,0,15788,41,0.93,0,0,0,0,7548,23892,6648,15191,0,52,21,52,0.00,5.35,1.58,0.23
2016-06-29 17:40:00,0,22090,0,0.00,0,0,0,0,20671,24895,1319,22004,0,0,0,0,0.00,0.00,0.00,0.00
2016-06-29 17:50:00,0,17876,0,0.00,0,0,0,0,13123,20801,2894,18973,0,0,0,0,0.00,0.00,0.00,0.00
2016-06-29 18:00:00,0,20342,0,0.00,0,0,0,0,17906,23128,1558,20158,0,0,0,0,0.00,0.00,0.00,0.00
2016-06-29 18:10:00,0,20245,0,0.00,0,0,0,0,15399,24392,3016,20450,0,0,0,0,0.00,0.00,0.00,0.00
2016-06-29 18:20:00,0,20929,0,0.00,0,0,0,0,18699,23995,1572,20816,0,0,0,0,0.00,0.00,0.00,0.00
2016-06-29 18:30:00,0,21724,0,0.00,0,0,0,0,19498,23820,1543,21452,0,0,0,0,0.00,0.00,0.00,0.00
2016-06-29 18:40:00,0,18998,0,0.00,0,0,0,0,16104,21297,1785,19342,0,0,0,0,0.00,0.00,0.00,0.00
2016-06-29 18:50:00,0,17989,0,0.00,0,0,0,0,12734,22097,2561,18108,0,0,0,0,0.00,0.00,0.00,0.00
2016-06-29 19:00:00,0,16307,0,0.00,0,0,0,0,13175,19145,1520,16378,0,0,0,0,0.00,0.00,0.00,0.00
2016-06-29 19:10:00,0,17615,0,0.00,0,0,0,0,16709,19560,733,17491,0,0,0,0,0.00,0.00,0.00,0.00
2016-06-29 19:20:00,0,18062,0,0.00,0,0,0,0,16658,19443,856,18043,0,0,0,0,0.00,0.00,0.00,0.00
2016-06-29 19:30:00,0,19739,0,0.00,0,0,0,0,18090,23110,1434,19412,0,0,0,0,0.00,0.00,0.00,0.00
2016-06-29 19:40:00,0,20814,0,0.00,0,0,0,0,18635,22705,1188,20781,0,0,0,0,0.00,0.00,0.00,0.00
2016-06-29 19:50:00,0,19038,0,0.00,0,0,0,0,15396,23194,2590,18252,0,0,0,0,0.00,0.00,0.00,0.00
2016-06-29 20:00:00,0,14008,6,0.04,0,0,0,0,9707,16940,1880,14338,0,61,18,0,0.00,0.35,0.11,0.00
2016-06-29 20:10:00,0,10705,58,1.66,0,0,0,0,8881,12536,1315,10648,52,61,4,61,0.50,6.00,1.53,1.00
2016-06-29 20:20:00,0,7782,60,1.82,0,0,0,0,6013,9145,1113,8316,52,61,3,61,0.70,3.75,0.95,1.65
2016-06-29 20:30:00,0,8289,49,6.88,0,0,0,0,5810,11520,1789,8012,0,62,25,61,0.00,21.65,7.23,4.85
2016-06-29 20:40:00,0,7869,61,8.13,0,0,0,0,5910,10475,1269,7763,61,62,0,61,1.25,20.40,6.90,5.97
2016-06-29 20:50:00,0,11230,59,0.89,0,0,0,0,10233,12191,637,11328,51,61,4,61,0.15,3.65,0.97,0.75
2016-06-29 21:00:00,0,17284,46,0.06,0,0,0,0,13593,22667,2662,16928,0,51,15,51,0.00,0.25,0.07,0.05
2016-06-29 21:10:00,0,11357,43,1.15,0,0,0,0,8544,14990,2018,11320,0,61,22,52,0.00,3.10,0.93,0.95
2016-06-29 21:20:00,0,17987,59,4.69,0,0,0,0,4361,30538,9330,19239,52,62,4,61,0.00,30.40,9.21,0.40
2016-06-29 21:30:00,0,17175,37,5.69,0,0,0,0,5054,33373,10992,14908,0,62,30,61,0.00,32.45,9.79,0.18
2016-06-29 21:40:00,0,11425,49,1.41,0,0,0,0,4341,28853,7523,7912,0,61,17,52,0.00,3.40,1.38,0.83
2016-06-29 21:50:00,0,38093,0,0.00,0,0,0,0,30432,46183,4219,37412,0,0,0,0,0.00,0.00,0.00,0.00
2016-06-29 22:00:00,0,30761,0,0.00,0,0,0,0,24725,39503,3879,30972,0,0,0,0,0.00,0.00,0.00,0.00
2016-06-29 22:10:00,0,34942,0,0.00,0,0,0,0,31627,38977,2533,34399,0,0,0,0,0.00,0.00,0.00,0.00
2016-06-29 22:20:00,0,46754,0,0.00,0,0,0,0,40538,50000,3765,48580,0,0,0,0,0.00,0.00,0.00,0.00
2016-06-29 22:30:00,0,40092,0,0.00,0,0,0,0,26654,50000,6982,40843,0,0,0,0,0.00,0.00,0.00,0.00
2016-06-29 22:40:00,0,41362,0,0.00,0,0,0,0,29354,50000,6424,43418,0,0,0,0,0.00,0.00,0.00,0.00
2016-06-29 22:50:00,2,46953,0,0.00,0,2,1,2,39399,50000,3619,48343,0,0,0,0,0.00,0.00,0.00,0.00
2016-06-29 23:00:00,2,45903,0,0.00,0,2,1,2,34760,50000,5377,50000,0,0,0,0,0.00,0.00,0.00,0.00
2016-06-29 23:10:00,0,44890,0,0.00,0,2,1,0,29448,50000,6999,47908,0,0,0,0,0.00,0.00,0.00,0.00
2016-06-29 23:20:00,0,49918,0,0.00,0,0,0,0,49177,50000,247,50000,0,0,0,0,0.00,0.00,0.00,0.00
2016-06-29 23:30:00,0,48430,0,0.00,0,2,1,0,38245,50000,3464,50000,0,0,0,0,0.00,0.00,0.00,0.00
2016-06-29 23:40:00,0,49876,0,0.00,0,0,0,0,48759,50000,372,50000,0,0,0,0,0.00,0.00,0.00,0.00
2016-06-29 23:50:00,0,49038,0,0.00,0,0,0,0,43446,50000,1979,50000,0,0,0,0,0.00,0.00,0.00,0.00
